Regional Weather Roundup
Issued by NWS

Home | Current Version | Previous Version | Graphics & Text | Print | Product List | Glossary On
Versions: 1 2 3 4 5 6 7 8 9 10 11 12 13 14 15 16 17 18 19 20 21 22 23 24 25 26 27 28 29 30 31 32 33 34 35 36 37 38 39 40 41 42 43 44 45 46 47 48 49 50
000
ASUS44 KMEG 251310
RWRTN
TENNESSEE HOURLY STATE WEATHER ROUNDUP
NATIONAL WEATHER SERVICE MEMPHIS TN
800 AM CDT TUE JUL 25 2017

TNZ002-004-019-021-049-052-054-088>092-251400-
WEST TENNESSEE

CITY           SKY/WX    TMP DP  RH WIND       PRES   REMARKS
MEMPHIS INTL   SUNNY     81  76  84 VRB3      30.08S
NWS MEMPHIS      N/A     80 N/A N/A MISG        N/A
JACKSON        SUNNY     78  74  87 W3        30.10R
SOMERVILLE       N/A     77  73  88 CALM      30.08S
COVINGTON      SUNNY     79  75  89 CALM      30.09R
UNION CITY     SUNNY     77  75  94 CALM      30.08S
BOLIVAR        SUNNY     79  73  83 CALM      30.08S
PARIS          MOSUNNY   77  75  94 SW5       30.09S
HUNTINGDON     MOSUNNY   77  73  88 CALM      30.09R
SELMER         SUNNY     77  72  83 CALM      30.10R
SAVANNAH       SUNNY     75  73  94 CALM      30.09S
$$

TNZ008-025-027-028-033-062-065-066-251400-
NORTH MIDDLE TENNESSEE

CITY           SKY/WX    TMP DP  RH WIND       PRES   REMARKS
NASHVILLE      MOSUNNY   82  76  81 CALM      30.11R
PORTLAND       SUNNY     77  73  88 CALM      30.11R
CLARKSVILLE    SUNNY     78  73  84 CALM      30.10R
SMYRNA         SUNNY     78  75  90 SE5       30.12R
COOKEVILLE     SUNNY     75  72  88 CALM      30.13S
GALLATIN       PTSUNNY   77  75  94 CALM      30.13S
CROSSVILLE     SUNNY     75  68  78 CALM      30.19R
$$

TNZ061-075-076-078-094-096-097-251400-
SOUTH MIDDLE TENNESSEE

CITY           SKY/WX    TMP DP  RH WIND       PRES   REMARKS
FAYETTEVILLE   SUNNY     75  73  94 CALM      30.12S
TULLAHOMA      SUNNY     75  70  83 CALM      30.14S
WINCHESTER     SUNNY     75  72  88 CALM      30.13S
MCMINNVILLE    SUNNY     79  79 100 CALM      30.13S
COLUMBIA       SUNNY     77  73  88 CALM      30.09S
SHELBYVILLE    SUNNY     75  73  94 CALM      30.12S
$$

TNZ017-018-042-046-047-251400-
NORTHEAST TENNESSEE

CITY           SKY/WX    TMP DP  RH WIND       PRES   REMARKS
TRI CITIES     MOSUNNY   75  69  81 CALM      30.16S
ELIZABETHTON   SUNNY     73  68  83 CALM      30.17R
$$

TNZ012-013-036-069-073-074-251400-
CENTRAL EAST TENNESSEE

CITY           SKY/WX    TMP DP  RH WIND       PRES   REMARKS
KNOXVILLE      MOSUNNY   77  69  76 CALM      30.12R
OAK RIDGE      SUNNY     75  69  81 CALM      30.14R
DOWNTOWN KNOXV SUNNY     75  72  88 CALM      30.11S
GATLINBURG     SUNNY     75  66  73 CALM      30.12S
MORRISTOWN     SUNNY     75  70  83 CALM      30.14R
JACKSBORO      SUNNY     73  70  88 CALM      30.18R
$$

TNZ083-085-099-251400-
SOUTHEAST TENNESSEE

CITY           SKY/WX    TMP DP  RH WIND       PRES   REMARKS
CHATTANOOGA    CLOUDY    79  72  79 NW3       30.12R
DAYTON         SUNNY     77  75  94 CALM      30.11S
$$

SKY/WX REPORTED AS FAIR MEANS FEW OR NO CLOUDS BELOW
12 THOUSAND FEET.





USA.gov is the U.S. government's official web portal to all federal, state and local government web resources and services.